Время (UTC), дата Ветер
(°,м/с) 
Видим.   Явления Облачность Т
(°С)
Тd
(°С)
f(%) Тe
(°С)
Pmin
(гПа)
dP
(гПа)
Po
(мм)
O2
(г/м3)
Тmin Tmax R s Состояние
почвы
00 01.08.11 070 (В) 10 км    8/8 600 м 
[Cu med, cong]
+16.2 +13.4 83 +24  1002.2  -0.3  741  279           
03 01.08.11 040 (СВ) >10 км    8/0 средняя 
[Ac cast]
+17 +13.5 80 +24  1001.9  -0.2  741  278           
06 01.08.11 050 (СВ) >10 км    8/3 1000 м средняя 
[Cu med, cong|Ac cast]
+19.2 +14 72 +27  1001.7  -0.1  741  276  +16         
09 01.08.11 070 (В) >10 км    6/5 1000 м средняя 
[Cu med, cong|Ac cast]
+22.3 +11 49 +25  1001.6  741  274           
12 01.08.11 050 (СВ) >10 км    4/4 1000 м 
[Cu med, cong]
+23.5 +7.8 37 +24  1002.1  0.6  741  274           
15 01.08.11 100 (В) >10 км    6/6 1500 м 
[Cu med, cong]
+22.3 +11.2 49 +25  1002.8  0.6  742  274           
18 01.08.11 090 (В) 10 км    3/3 1500 м средняя 
[Ac cast]
+19.6 +11.5 59 +24  1004.2  1.3  743  277    +24.3       
21 01.08.11 100 (В) 10 км    ясно 
+18 +9.7 58 +20  1005  0.7  743  279           
00 02.08.11 090 (В) 10 км    3/0 средняя 
[Ac cast]
+17 +10.2 64 +20  1005.5  0.5  744  280           
03 02.08.11 тихо ()   >10 км    6/0 средняя 
[Ac cast]
+18.3 +11.6 65 +22  1006.1  0.6  744  279           
06 02.08.11 тихо ()   >10 км    9/3 600 м средняя 
[Sc|Ac lent]
+20.7 +12 57 +25  1006.4  0.5  745  277  +17         
09 02.08.11 020 (С) >10 км    9/9 600 м 
[Sc diur, vesp]
+20.5 +11.7 57 +24  1007.2  0.8  745  277           
12 02.08.11 060 (СВ) >10 км  слаб. дождь  10/10 600 м 
[Sc]
+19.4 +12.7 65 +25  1008.4  1.1  746  278           
15 02.08.11 060 (СВ) 10 км  слаб. дождь  10/10 600 м 
[Sc]
+16.4 +13.8 85 +24  1009.1  0.6  746  281           
18 02.08.11 050 (СВ) 10 км  {дождь}  10/10 600 м 
[Sc]
+15.8 +12.2 79 +21  1010.9  1.7  748  282    +22.3  0.6     
21 02.08.11 060 (СВ) 10 км    10/0 средняя 
[Ac cast]
+14.7 +10.9 78 +17  1012.1  1.1  749  284           
00 03.08.11 070 (В) 10 км    4/0 средняя 
[Ac lent]
+11.4 +7.5 77 +13  1013.4  1.1  749  289           
03 03.08.11 060 (СВ) >10 км    ясно 
+11.1 +6.7 74 +12  1014.7  1.3  750  289           
06 03.08.11 080 (В) >10 км    ясно 
+15.3 +4.9 50 +16  1015.5  751  286  +10.1         
09 03.08.11 050 (СВ) >10 км    ясно 
+18.2 +5 42 +19  1017.1  1.6  752  283           
12 03.08.11 070 (В) >10 км    ясно 
+19.4 +4.5 37 +20  1016.9  -0.1  752  282           
15 03.08.11 080 (В) >10 км    1/0 средняя 
[Ac cast]
+19.3 +3.4 35 +20  1016.9  752  283           
18 03.08.11 080 (В) 10 км    ясно 
+16.4 +5.1 47 +17  1018  0.9  753  285    +19.8       
21 03.08.11 070 (В) 10 км    ясно 
+14.5 +6 57 +15  1018.2  0.1  753  287           
00 04.08.11 080 (В) 10 км    ясно 
+13.4 +7 65 +15  1018.5  0.3  753  288           
03 04.08.11 090 (В) >10 км    ясно 
+14.4 +7.3 62 +15  1018.4  -0.1  753  287           
06 04.08.11 110 (В) >10 км    3/1 600 м верхняя 
[Cu hum|Ci fib]
+18.6 +6.4 45 +19  1018  -0.2  753  283  +12.7         
09 04.08.11 090 (В) >10 км    9/5 600 м верхняя 
[Cu med, cong|Ci fib]
+19.8 +5.1 38 +21  1016.9  -1  752  282           
12 04.08.11 100 (В) >10 км    9/3 600 м верхняя 
[Cu med, cong|Ci fib]
+21.7 +5.2 34 +22  1015.3  -1.4  751  280           
15 04.08.11 110 (В) >10 км    4/1 600 м верхняя 
[Cu med, cong|Ci fib]
+20.5 +4.8 36 +21  1014.4  -1  750  281           
18 04.08.11 090 (В) 10 км    4/1 600 м верхняя 
[Sc diur, vesp|Ci fib]
+17.9 +6.7 48 +19  1014.8  0.3  751  283    +22       
21 04.08.11 080 (В) 10 км    ясно 
+15.6 +6.1 53 +16  1014.4  -0.5  750  285           
00 05.08.11 080 (В) 10 км    1/1 600 м 
[Sc]
+14.2 +6.8 61 +15  1013.5  -1  749  286           
03 05.08.11 110 (В) >10 км    8/0 средняя, верхняя 
[Ac cast|Ci fib]
+15.4 +7.6 60 +16  1012.6  -0.8  749  284           
06 05.08.11 080 (В) >10 км    10/0 средняя, верхняя 
[Ac cast|Ci fib]
+18.9 +9 53 +20  1011.6  -0.8  748  280  +13.7         
09 05.08.11 100 (В) >10 км    10/4 600 м средняя 
[Cu med, cong|Ac cast]
+21.3   1009.6  -1.8  747             
12 05.08.11 110 (В) >10 км    10/6 600 м средняя, верхняя 
[Sc|Ac cast|Ci fib]
+21.5 +6.1 37 +22  1008.4  -1.2  746  278           
15 05.08.11 060 (СВ) >10 км    10/6 600 м средняя 
[Sc|Ac cast]
+20.5 +8 44 +21  1007.1  -1.4  745  278           
18 05.08.11 100 (В) 10 км  слаб. дождь  10/10 600 м 
[Sc]
+18.5 +8.2 51 +19  1007.6  0.4  745  280    +21.8       
21 05.08.11 060 (СВ) 10 км  слаб. дождь  10/10 600 м 
[Sc]
+16.2 +9.7 65 +19  1006.9  -0.8  745  282           
00 06.08.11 010 (С) 10 км  {дождь}  10/0 средняя, верхняя 
[Ac cast|Ci fib]
+15.2 +8.7 65 +17  1006.3  -0.6  744  283           
03 06.08.11 010 (С) 10 км    9/0 верхняя 
[Ci sp]
+13.6 +8.9 73 +15  1006.9  0.5  745  284           
06 06.08.11 020 (С) >10 км    3/0 средняя 
[Ac lent]
+19.4 +9.2 52 +20  1007.5  0.9  745  279  +13.2    0.0     
09 06.08.11 010 (С) >10 км    3/3 600 м 
[Cu hum]
+22.1 +6.2 36 +22  1007.5  0.1  745  277           
12 06.08.11 340 (С) >10 км    10/10 600 м 
[Sc diur, vesp]
+22.3 +9.3 43 +23  1007.8  0.3  746  276           
15 06.08.11 020 (С) >10 км    6/4 600 м кучево-дожд., верхняя 
[Cb calv|Ci fib]
+21.1 +11.2 53 +24  1008.5  0.7  746  277           
18 06.08.11 010 (С) 10 км    ясно 
+15.5 +9.8 69 +18  1011.4  2.6  748  283    +24       
21 06.08.11 020 (С) 10 км    ясно 
+13.4 +8.2 71 +15  1012.3  0.7  749  286           
00 07.08.11 020 (С) 10 км    ясно 
+11.7 +6.9 72 +13  1013.1  0.7  749  288           
03 07.08.11 010 (С) >10 км    4/0 верхняя 
[Ci fib]
+12 +5.8 66 +13  1014.5  1.4  750  289           
06 07.08.11 330 (СЗ) >10 км    3/0 верхняя 
[Cc]
+16.9 +5 45 +18  1015.6  1.3  751  284  +10.5         
09 07.08.11 300 (СЗ) >10 км    3/0 верхняя 
[Ci fib]
+19.8 +6 40 +21  1015.2  -0.2  751  281           
12 07.08.11 310 (СЗ) >10 км    ясно 
+22.3 +8.1 40 +22  1014.7  -0.4  751  278           
15 07.08.11 170 (Ю) >10 км    3/0 средняя, верхняя 
[Ac lent|Ci fib]
+22.8 +11 47 +25  1014  -0.6  750  277           
18 07.08.11 160 (Ю) 10 км  слаб. дождь  8/6 300 м средняя 
[Sc|Ac cast]
+18.2 +17.3 94 +33  1014.7  0.4  751  280    +23.4       
21 07.08.11 170 (Ю) 10 км  {дождь}  3/0 средняя 
[Ac cast]
+16.8 +12.5 76 +23  1014.2  -0.5  750  282           
00 08.08.11 тихо ()   10 км  {дождь}  3/0 средняя 
[Ac cast]
+16.2 +13.4 83 +22  1014.8  0.5  751  283           
03 08.08.11 240 (ЮЗ) >10 км    5/5 1000 м 
[Cu med, cong]
+17.6 +12.2 71 +22  1015  0.3  751  282           
06 08.08.11 260 (З) >10 км    5/0 средняя 
[Ac cast]
+21.6 +11.6 53 +25  1014.8  751  278  +15.4    0.3     
09 08.08.11 290 (З) >10 км    8/5 600 м верхняя 
[Cu med, cong|Ci fib]
+25.1 +9.7 38 +26  1014.9  0.3  751  275           
12 08.08.11 290 (З) >10 км    8/3 600 м верхняя 
[Cu med, cong|Ci fib]
+25.1 +7 31 +25  1015  0.1  751  276           
15 08.08.11 300 (СЗ) >10 км    9/1 600 м верхняя 
[Sc diur, vesp|Ci fib]
+24.9 +8.4 35 +25  1014.7  -0.3  751  276           
18 08.08.11 тихо ()   10 км    4/0 верхняя 
[Ci fib]
+19.9 +11 56 +22  1015.4  0.4  751  280    +26       
21 08.08.11 тихо ()   10 км    ясно 
+16.6 +11.4 71 +20  1016.1  0.6  752  283           
00 09.08.11 тихо ()   10 км    ясно 
+14.9 +11 77 +17  1016.8  0.5  752  285           
03 09.08.11 тихо ()   >10 км    ясно 
+17 +10.9 67 +19  1017.1  0.4  752  283           
06 09.08.11 250 (З) >10 км    ясно 
+22.9 +12.4 52 +27  1017.1  0.3  752  277  +13.9         
09 09.08.11 260 (З) >10 км    6/6 600 м 
[Cu med, cong]
+27.5 +10.3 34 +29  1016.5  -0.4  752  274           
12 09.08.11 260 (З) >10 км    4/0 средняя 
[Ac cast]
+29.4 +13.1 37 +35  1015.5  -0.8  752  271           
15 09.08.11 250 (З) >10 км    ясно 
+28.7 +12.6 37 +33  1014.3  -1.2  751  271           
18 09.08.11 230 (ЮЗ) 10 км    ясно 
+23.9 +13.1 51 +29  1014.9  0.3  751  276    +30.2       
21 09.08.11 180 (Ю) 10 км    ясно 
+21 +12.3 58 +25  1015.4  0.4  751  279           
00 10.08.11 150 (ЮВ) 10 км    ясно 
+18.5 +12.4 68 +24  1015.8  0.3  751  281           
03 10.08.11 140 (ЮВ) >10 км    ясно 
+19.2 +12.6 66 +26  1016.2  0.4  752  281           
06 10.08.11 240 (ЮЗ) >10 км    ясно 
+26.6 +12.8 42 +32  1016.4  0.5  752  274  +17.1         
09 10.08.11 250 (З) >10 км    3/0 верхняя 
[Ci fib]
+30.7 +9.5 27 +31  1016.1  -0.1  752  271           
12 10.08.11 250 (З) 3{10}  >10 км    ясно 
+31.9 +5.7 19 +32  1016.4  0.3  752  271           
15 10.08.11 250 (З) >10 км    ясно 
+30 +6.5 23 +30  1015.9  -0.5  752  272           
18 10.08.11 180 (Ю) 10 км    ясно 
+24 +9.1 39 +24  1017  0.7  752  277    +32.2       
21 10.08.11 160 (Ю) 10 км    ясно 
+21.9 +9 44 +22  1017.4  0.3  753  279           
00 11.08.11 170 (Ю) 10 км    4/0 средняя 
[Ac lent]
+20.3 +12.3 60 +25  1018.1  0.6  753  280           
03 11.08.11 150 (ЮВ) >10 км    4/0 средняя 
[Ac lent]
+20.7 +14.6 68 +29  1018.3  0.3  753  279           
06 11.08.11 180 (Ю) >10 км    1/1 1000 м 
[Cu hum]
+27.4 +14.3 45 +35  1017.7  -0.3  753  273  +19.4         
09 11.08.11 210 (ЮЗ) >10 км    3/0 средняя 
[Ac lent]
+32 +11.1 28 +35  1016.9  -0.6  753  269           
12 11.08.11 200 (Ю) >10 км    3/3 1000 м средняя 
[Cu hum|Ac lent]
+33 +10.1 25 +34  1015.6  -1.2  752  269           
15 11.08.11 160 (Ю) >10 км    3/0 средняя 
[Ac cast]
+30.2 +10.7 30 +32  1014.9  -0.8  751  271           
18 11.08.11 160 (Ю) 10 км    3/3 600 м 
[Sc]
+26.5 +11.7 40 +30  1015.6  0.6  752  274    +33       
21 11.08.11 тихо ()   10 км    ясно 
+23.3 +14.3 57 +31  1015.7  -0.1  752  276           
00 12.08.11 160 (Ю) 10 км    ясно 
+21.9 +14.6 63 +30  1015.7  -0.1  751  277           
03 12.08.11 160 (Ю) >10 км    3/0 верхняя 
[Ci fib]
+22.1 +14.1 60 +29  1016  0.3  752  277           
06 12.08.11 170 (Ю) >10 км    3/0 верхняя 
[Ci fib]
+27.9 +14.3 43 +35  1015.4  -0.3  751  272  +21         
09 12.08.11 170 (Ю) >10 км    9/0 верхняя 
[Ci fib]
+30.8 +12.4 32 +35  1015.1  -0.2  751  270           
12 12.08.11 270 (З) >10 км    9/1 600 м средняя, верхняя 
[Cu med, cong|Ac cast|Ci fib]
+33.2 +8.2 21 +33  1014.2  -0.8  751  268           
15 12.08.11 тихо ()   >10 км    8/0 средняя, верхняя 
[Ac lent|Ci fib]
+30 +15.2 41 +39  1013.9  -0.4  750  269           
18 12.08.11 110 (В) 10 км    1/0 средняя 
[Ac cuf]
+26.9 +12.7 41 +32  1014  750  273    +33.5       
21 12.08.11 100 (В) 10 км    ясно 
+25.9 +11.1 40 +29  1014  -0.1  750  274           
00 13.08.11 110 (В) 10 км    1/0 средняя 
[Ac lent]
+22.8 +12.7 53 +28  1014.5  0.4  751  277           
03 13.08.11 110 (В) >10 км    6/4 1000 м средняя 
[Sc|Ac cast]
+22.5 +13.2 56 +28  1014.8  0.3  751  277           
06 13.08.11 080 (В) >10 км    8/3 1000 м средняя 
[Cu hum|Ac cast]
+27 +16.6 53 +39  1014.6  751  272  +22.2         
09 13.08.11 110 (В) >10 км    10/0 средняя, верхняя 
[Ac trans|Ci fib]
+33.1 +10.6 25 +35  1013.8  -0.6  750  268           
12 13.08.11 140 (ЮВ) >10 км    6/0 средняя, верхняя 
[Ac cast|Ci fib]
+33.1 +11.8 27 +37  1013.4  -0.4  750  267           
15 13.08.11 150 (ЮВ) >10 км    8/4 600 м кучево-дожд., средняя, верхняя 
[Cb cap|Ac cast|Ci fib]
+30.4 +12.5 33 +35  1013.1  -0.4  750  270           
18 13.08.11 140 (ЮВ) 10 км  гроза без осадков{ливн. осадки}  6/4 600 м кучево-дожд., средняя 
[Cb cap|Ac cast]
+25.6 +13.4 47 +32  1014.6  1.3  751  274    +33.6       
21 13.08.11 080 (В) 10 км  {гроза}  8/0 средняя 
[Ac cast]
+23.8 +12.9 50 +29  1014.7  751  276           
00 14.08.11 110 (В) 10 км  {гроза}  10/8 600 м кучево-дожд., средняя 
[Cb cap|Ac cast]
+23 +11.9 50 +27  1015.6  0.9  751  277           
03 14.08.11 090 (В) >10 км    6/0 средняя 
[Ac cast]
+21.5 +13.4 60 +27  1015.4  -0.3  751  278           
06 14.08.11 090 (В) >10 км    10/4 600 м средняя, верхняя 
[Sc|Ac cast|Ci fib]
+24.1 +16.5 63 +35  1015.3  0.1  751  275  +21.3         
09 14.08.11 тихо ()   >10 км    10/0 средняя, верхняя 
[Ac lent|Ci fib]
+29.2 +14.8 42 +37  1015.1  751  270           
12 14.08.11 090 (В) >10 км    10/0 верхняя 
[Ci]
+29.6 +13.6 38 +36  1015  -0.1  751  270           
15 14.08.11 080 (В) >10 км    9/0 средняя 
[Ac As]
+28.2 +13.4 40 +34  1015  -0.1  751  272           
18 14.08.11 080 (В) 10 км  {дождь}  6/3 1000 м средняя 
[Sc diur, vesp|Ac lent]
+25.5 +16.4 57 +37  1014.8  -0.3  751  273    +29.8       
21 14.08.11 040 (СВ) 10 км    9/0 средняя 
[Ac cast]
+24 +17.4 67 +37  1014.6  -0.2  751  274           
00 15.08.11 040 (СВ) 10 км    9/4 1000 м средняя 
[Sc|Ac cast]
+23.5 +17.6 69 +37  1015  0.3  751  275           
03 15.08.11 060 (СВ) 10 км    3/0 средняя, верхняя 
[Ac lent|Ci fib]
+23.1 +17.3 70 +36  1015.2  0.2  751  275           
06 15.08.11 080 (В) >10 км    3/0 средняя 
[Ac lent]
+27.3 +17.7 56 +41  1014.6  -0.4  751  271  +22.4    0.0     
09 15.08.11 100 (В) >10 км    1/0 средняя 
[Ac lent]
+30.4 +15.4 40 +40  1014.4  -0.1  751  269           
12 15.08.11 090 (В) >10 км    ясно 
+31.7 +12.3 31 +36  1014  -0.4  750  269           
15 15.08.11 070 (В) >10 км    ясно 
+29.7 +14.2 39 +37  1013.9  -0.1  750  270           
18 15.08.11 080 (В) 10 км    ясно 
+26.1 +14.4 48 +34  1014.7  0.6  751  273    +32.3       
21 15.08.11 080 (В) 10 км    ясно 
+22.5 +14.9 62 +31  1015.5  0.7  751  277           
00 16.08.11 070 (В) 10 км    ясно 
+19.9 +16.1 79 +32  1016.3  0.6  752  279           
03 16.08.11 070 (В) >10 км    ясно 
+18.4 +14.6 79 +27  1016.9  0.5  752  281           
06 16.08.11 070 (В) >10 км    5/0 средняя, верхняя 
[Ac cast|Ci fib]
+19.8 +14.1 70 +28  1017.1  0.2  752  280  +17.8         
09 16.08.11 060 (СВ) >10 км    3/0 верхняя 
[Ci fib]
+22.8 +11 47 +25  1016.7  -0.2  752  278           
12 16.08.11 060 (СВ) >10 км    1/0 верхняя 
[Ci fib]
+23.6 +6.3 33 +24  1016.1  -0.5  752  278           
15 16.08.11 060 (СВ) >10 км    1/0 верхняя 
[Ci fib]
+22.1 +5 33 +22  1015.7  -0.5  751  279           
18 16.08.11 060 (СВ) 10 км    1/0 верхняя 
[Ci fib]
+18.4 +4.7 40 +19  1016.4  0.5  752  283    +24.4       
21 16.08.11 080 (В) 10 км    ясно 
+15 +6.4 56 +16  1017.1  0.5  752  286           
00 17.08.11 070 (В) 10 км    ясно 
+12.4 +7 70 +13  1017.3  752  289           
03 17.08.11 090 (В) >10 км    3/0 средняя 
[Ac lent]
+12.6 +7.5 71 +13  1017.1  -0.2  752  288           
06 17.08.11 060 (СВ) >10 км    4/0 верхняя 
[Ci fib]
+16.4 +8.1 58 +17  1017.1  0.2  752  285  +12.2         
09 17.08.11 040 (СВ) >10 км    3/0 верхняя 
[Ci fib]
+20 +5.7 39 +20  1015.7  -1.1  751  281           
12 17.08.11 100 (В) >10 км    10/0 верхняя 
[Ci fib]
+22.8 +4.7 31 +23  1015.2  -0.4  751  279           
15 17.08.11 070 (В) >10 км    10/0 верхняя 
[Ci fib]
+21.5 +3.4 30 +22  1014.5  -0.7  751  280           
18 17.08.11 090 (В) 10 км    5/0 средняя, верхняя 
[Ac cast|Ci fib]
+17.8 +4.6 42 +19  1015.1  0.4  751  283    +22.8       
21 17.08.11 070 (В) 10 км    5/0 средняя 
[Ac cast]
+15.4 +5.6 52 +17  1015.5  0.3  751  286           
00 18.08.11 080 (В) 10 км    6/0 средняя 
[Ac cast]
+14 +5.6 57 +15  1015.7  0.1  751  287           
03 18.08.11 090 (В) >10 км    9/0 средняя 
[Ac trans]
+13 +6.1 63 +13  1015.8  0.1  751  288           
06 18.08.11 070 (В) >10 км    9/0 верхняя 
[Cc]
+16 +6.9 55 +17  1016.3  0.6  752  285  +13         
09 18.08.11 070 (В) >10 км    9/0 верхняя 
[Ci fib]
+19.1 +3.4 35 +21  1015.3  -0.9  751  282           
12 18.08.11 080 (В) >10 км    ясно 
+20.8 +2.8 30 +21  1014.3  -0.9  750  281           
15 18.08.11 080 (В) >10 км    ясно 
+19.9 +2.9 32 +21  1013.2  -1.1  749  281           
18 18.08.11 100 (В) 10 км    4/0 средняя 
[Ac cast]
+16.9 +3.9 42 +18  1013.9  0.5  750  284    +21.3       
21 18.08.11 070 (В) 10 км    ясно 
+14.9 +3.8 47 +16  1014.5  0.5  750  286           
00 19.08.11 080 (В) 10 км    ясно 
+12.5 +4.4 58 +14  1014.4  -0.2  750  288           
03 19.08.11 090 (В) >10 км    ясно 
+11.6 +4.8 63 +13  1014.8  0.4  750  289           
06 19.08.11 090 (В) >10 км    1/0 верхняя 
[Ci fib]
+17.4 +7.5 52 +18  1015  0.5  751  283  +10.5         
09 19.08.11 190 (Ю) >10 км    3/3 600 м верхняя 
[Cu hum|Ci fib]
+19.3 +2.1 32 +21  1014.7  -0.2  751  282           
12 19.08.11 200 (Ю) >10 км    1/1 600 м 
[Cu hum]
+20.4 +3.7 33 +20  1013.8  -0.9  750  281           
15 19.08.11 360 (С) >10 км    9/0 средняя, верхняя 
[Ac cuf|Ci fib]
+19.9 +3.2 33 +21  1013.1  -0.7  749  281           
18 19.08.11 180 (Ю) 10 км    8/3 600 м средняя 
[Sc|Ac cast]
+15.2 +5.6 53 +17  1013.3  749  285    +22       
21 19.08.11 тихо ()   10 км    4/4 600 м 
[Sc]
+13 +7.7 70 +13  1013.4  749  287           
00 20.08.11 тихо ()   10 км    10/10 600 м 
[Sc]
+13.2 +8.8 75 +13  1013.1  -0.3  749  286           
03 20.08.11 тихо ()   >10 км    10/10 600 м 
[Sc]
+13.4 +9.1 75 +13  1013.1  749  286           
06 20.08.11 040 (СВ) 10 км    9/9 600 м 
[Sc]
+15.2 +8.3 63 +17  1013.2  0.2  749  285  +12         
09 20.08.11 050 (СВ) 10 км  слаб. дождь  10/10 600 м 
[Sc]
+17.2 +9.1 59 +19  1013.1  749  282           
12 20.08.11 110 (В) 10 км  в посл. час дождь  9/9 600 м 
[Sc]
+18.5 +9.2 55 +19  1012.7  -0.4  749  281           
15 20.08.11 110 (В) 10 км    9/9 600 м 
[Sc]
+16.4 +10.2 67 +18  1012.7  -0.1  749  283           
18 20.08.11 090 (В) 10 км  {дождь}  4/4 600 м 
[Sc]
+14 +12 88 +19  1013.2  0.4  749  285    +19  0.0     
21 20.08.11 090 (В) 10 км    9/9 600 м 
[Sc]
+13.5 +10.6 83 +17  1013.2  749  286           
00 21.08.11 080 (В) 10 км    ясно 
+12.6 +10.3 86 +15  1012.9  -0.3  749  287           
03 21.08.11 090 (В) >10 км    3/0 средняя 
[Ac As]
+12.6 +9.9 84 +14  1012.9  -0.1  749  287           
06 21.08.11 080 (В) >10 км    10/0 средняя, верхняя 
[Ac lent|Ci fib]
+16.4 +12 75 +21  1012.9  0.2  749  282  +11.7       
09 21.08.11 140 (ЮВ) >10 км    9/9 300 м 
[Sc diur, vesp]
+19.9 +12 60 +25  1012.7  749  279           
12 21.08.11 050 (СВ) >10 км    10/10 600 м 
[Sc diur, vesp]
+18.3 +12.2 68 +23  1012.7  -0.1  749  281           
15 21.08.11 110 (В) >10 км    10/10 1000 м 
[Sc]
+18.6 +11.1 62 +23  1012.6  -0.1  749  280           
18 21.08.11 тихо ()   10 км  слаб. дождь  10/10 600 м 
[Sc]
+16.6 +11.9 74 +20  1012.9  0.3  749  282    +19.9  0.0     
21 21.08.11 080 (В) 10 км  слаб. дождь  10/10 600 м 
[Sc]
+14.4 +9.3 71 +15  1012.9  -0.2  749  285           
00 22.08.11 080 (В) 10 км  {дождь}  10/10 600 м 
[Sc]
+12.8 +8.4 75 +13  1012.5  -0.4  749  287           
03 22.08.11 080 (В) 10 км  слаб. дождь  10/10 600 м 
[Sc]
+10.4 +6.3 76 +10  1013.5  0.8  749  290           
06 22.08.11 070 (В) >10 км  {дождь}  10/4 600 м средняя, верхняя 
[Sc|Ac cast|Ci fib]
+12 +5.1 63 +12  1013.7  0.3  750  288  +10       
09 22.08.11 070 (В) >10 км    10/1 600 м средняя, верхняя 
[Sc|Ac cast|Ci]
+16.2 +3.7 43 +17  1013.2  -0.3  749  284           
12 22.08.11 070 (В) >10 км    10/3 600 м средняя, верхняя 
[Sc|Ac cast|Ci fib]
+16.5 +2.6 39 +17  1012.4  -0.8  749  284           
15 22.08.11 070 (В) 2{10}  >10 км    10/0 средняя, верхняя 
[Ac cast|Ci fib]
+15.5 +2.9 43 +16  1012.6  0.2  749  285           
18 22.08.11 050 (СВ) 10 км    ясно 
+12.4 +3.4 54 +13  1013.4  0.6  749  288    +17  0.0     
21 22.08.11 030 (СВ) 10 км    ясно 
+9 +2.9 66 +9  1013.4  -0.2  749  292           
00 23.08.11 020 (С) 10 км    ясно 
+7.1 +2 70 +7  1013.4  -0.1  749  294           
03 23.08.11 020 (С) >10 км    9/0 средняя 
[Ac lent]
+7.7 +2.7 71 +8  1013.4  0.1  749  293           
06 23.08.11 030 (СВ) >10 км    4/0 средняя 
[Ac cast]
+12.6 +3.2 53 +12  1013.6  0.4  749  288  +6.6         
09 23.08.11 360 (С) 4{10}  >10 км    ясно 
+14.9 +1.7 41 +15  1013  -0.5  749  286           
12 23.08.11 010 (С) >10 км    ясно 
+15.3 +2 41 +16  1013.4  0.5  749  286           
15 23.08.11 020 (С) >10 км    ясно 
+13.3 +2.7 49 +14  1014  0.5  750  288           
18 23.08.11 020 (С) 10 км    ясно 
+9.5 +2.4 61 +11  1015.4  1.2  751  292    +16.1       
21 23.08.11 010 (С) 10 км    8/0 средняя 
[Ac cast]
+8 +2.5 68 +9  1015.4  -0.1  751  293           
00 24.08.11 030 (СВ) 10 км    6/0 средняя 
[Ac cast]
+7.9 +4 76 +9  1015.7  0.3  751  293           
03 24.08.11 010 (С) >10 км    6/0 средняя 
[Ac lent]
+6.7 +4.6 86 +8  1016.6  0.8  752  295           
06 24.08.11 010 (С) >10 км    ясно 
+11.4 +5.6 67 +13  1016.9  0.5  752  290  +6.5         
09 24.08.11 010 (С) >10 км    8/8 600 м 
[Cu med, cong]
+15.4 +3.4 45 +16  1016.7  752  286           
12 24.08.11 010 (С) >10 км    8/8 600 м 
[Cu med, cong]
+15.6 +2.2 40 +16  1016.7  752  286           
15 24.08.11 010 (С) >10 км    4/4 600 м 
[Sc diur, vesp]
+15 +0.9 38 +16  1016.2  -0.5  752  287           
18 24.08.11 060 (СВ) 10 км    4/4 600 м 
[Sc]
+12 +1.7 49 +13  1018  1.6  753  290    +16.7       
21 24.08.11 тихо ()   10 км    ясно 
+9.2 +3.4 67 +9  1018.1  753  293           
00 25.08.11 340 (С) 10 км    ясно 
+9.7 +5.5 75 +11  1017.3  -0.8  752  292           
03 25.08.11 020 (С) >10 км    ясно 
+8 +3.6 74 +9  1018.4  753  294           
06 25.08.11 070 (В) >10 км    ясно 
+12.5 +3.3 53 +13  1018.9  0.7  753  290  +8         
09 25.08.11 010 (С) >10 км    1/1 600 м 
[Cu hum]
+15.3 +1.7 40 +16  1018.8  0.1  753  287           
12 25.08.11 040 (СВ) >10 км    3/1 600 м средняя 
[Cu hum|Ac lent]
+17.7 +1.4 33 +19  1018.8  0.1  754  285           
15 25.08.11 350 (С) >10 км    ясно 
+17.4 +1.5 34 +18  1018.8  754  285           
18 25.08.11 тихо ()   10 км    ясно 
+13.1 +3.8 53 +13  1020.3  1.2  754  289    +17.9       
21 25.08.11 170 (Ю) 10 км    ясно 
+9.4 +3.4 66 +10  1020.9  0.5  755  294           
00 26.08.11 тихо ()   10 км    ясно 
+7.4 +3.4 76 +7  1021.3  0.3  755  296           
03 26.08.11 тихо ()   >10 км    ясно 
+7 +4 81 +7  1022.4  0.9  756  296           
06 26.08.11 290 (З) >10 км    ясно 
+14.6 +8 65 +16  1022.1  0.2  756  288  +5.6         
09 26.08.11 280 (З) >10 км    6/6 600 м 
[Cu med, cong]
+20.1 +5.3 38 +20  1021.5  -0.3  756  283           
12 26.08.11 270 (З) >10 км    6/4 600 м средняя 
[Cu med, cong|Ac lent]
+21.1 +3.9 32 +21  1020.3  -1.2  755  282           
15 26.08.11 160 (Ю) >10 км  в посл. час дождь  8/4 600 м средняя 
[Cu med, cong|Ac cast]
+15.3 +11.2 77 +20  1020.9  0.4  755  286           
18 26.08.11 310 (СЗ) 10 км  {дождь}  4/0 средняя 
[Ac cast]
+13.9 +10.9 82 +17  1020.8  -0.2  750  286    +21.8     
21 26.08.11 030 (СВ) 10 км    6/0 средняя 
[Ac cast]
+12.6 +11.1 91 +16  1021.2  0.3  755  289           
00 27.08.11 320 (СЗ) 10 км    ясно 
+12.2 +9.2 82 +13  1021.2  0.1  755  290           
03 27.08.11 330 (СЗ) >10 км    3/0 верхняя 
[Ci fib]
+11.6 +8.8 83 +13  1021.6  0.3  755  290           
06 27.08.11 310 (СЗ) >10 км    9/0 средняя, верхняя 
[Ac cast|Ci fib]
+15.3 +10.6 74 +18  1022.7  1.3  756  287  +11.5         
09 27.08.11 300 (СЗ) >10 км    9/9 1000 м 
[Cu hum]
+19.6 +7.3 45 +21  1021  -1.5  755  283           
12 27.08.11 290 (З) >10 км    8/8 600 м 
[Cu Sc]
+20.9 +5.1 36 +21  1020  -1  755  282           
15 27.08.11 330 (СЗ) >10 км    10/10 600 м 
+20.1 +6.4 41 +20  1018.8  -1.2  754  282           
18 27.08.11 240 (ЮЗ) 10 км    10/0 верхняя 
[Cs]
+17 +10.7 66 +20  1018.3  -0.6  753  284    +21.8       
21 27.08.11 250 (З) 10 км    10/0 средняя 
[Ac As]
+16.7 +9.9 64 +19  1016.2  -2  752  284           
00 28.08.11 280 (З) 10 км    10/0 средняя 
[Ac As]
+16.7 +9.9 64 +18  1012.8  -3.4  749  283           
03 28.08.11 310 (СЗ) >10 км  {дождь}  10/9 600 м верхняя 
[Sc|Ci fib]
+16.1 +12.3 78 +20  1010.9  -1.9  748  282           
06 28.08.11 320 (СЗ) 10 км  {дождь}  10/10 600 м 
[Sc]
+16.8 +14.4 86 +25  1010.6  -0.2  748  281  +15.5       
09 28.08.11 320 (СЗ) >10 км    9/3 600 м верхняя 
[Cu med, cong|Ci fib]
+21.1 +13.7 63 +28  1010.3  -0.1  747  277           
12 28.08.11 320 (СЗ) >10 км  в посл. час ливневой дождь  8/3 600 м верхняя 
[Sc diur, vesp|Ci fib]
+20.1 +14.1 68 +27  1010.7  0.3  748  278           
15 28.08.11 010 (С) >10 км    8/1 600 м средняя, верхняя 
[Sc diur, vesp|Ac cast|Ci fib]
+20.3 +11.7 58 +24  1012.1  1.3  749  279           
18 28.08.11 100 (В) 10 км    ясно 
+16.1 +10.5 69 +19  1014.3  750  284    +23.7  0.8     
21 28.08.11 070 (В) 10 км    ясно 
+13 +9.1 77 +13  1015.3  0.9  751  287           
00 29.08.11 тихо ()   10 км    3/3 600 м 
[Sc]
+11.9 +9.5 85 +12  1016.3  0.9  752  288           
03 29.08.11 тихо ()   >10 км    ясно 
+11 +9.2 89 +11  1016.6  0.3  752  290           
06 29.08.11 250 (З) >10 км    3/0 средняя 
[Ac lent]
+16.1 +8.7 61 +17  1016.9  0.4  752  285  +9.6         
09 29.08.11 250 (З) >10 км    4/0 средняя 
[Ac lent]
+22.1 +11.6 51 +25  1015.9  -0.6  752  278           
12 29.08.11 260 (З) >10 км    4/0 средняя 
[Ac lent]
+25.1 +11.4 42 +28  1013.9  -1.8  750  275           
15 29.08.11 250 (З) >10 км    4/0 средняя 
[Ac lent]
+24.3 +14.6 55 +32  1013.1  -0.8  750  274           
18 29.08.11 200 (Ю) 10 км    ясно 
+20.4 +14 67 +27  1013.2  -0.1  750  278    +25.5       
21 29.08.11 240 (ЮЗ) 10 км    1/0 средняя 
[Ac cast]
+18.2 +13.6 75 +26  1013.4  750  280           
00 30.08.11 260 (З) 10 км    ясно 
+18 +12.6 71 +24  1013.5  0.1  750  281           
03 30.08.11 170 (Ю) >10 км    ясно 
+15.3 +12.4 83 +21  1013.8  0.2  750  284           
06 30.08.11 240 (ЮЗ) >10 км    ясно 
+20.9 +12.2 57 +25  1014.1  0.6  750  278  +15         
09 30.08.11 260 (З) >10 км    ясно 
+25.9 +11.1 40 +29  1013.7  -0.2  750  274           
12 30.08.11 250 (З) >10 км    1/1 600 м 
[Cu hum]
+27 +8.8 32 +27  1012.8  -0.8  749  273           
15 30.08.11 240 (ЮЗ) >10 км    ясно 
+24.9 +8.4 35 +25  1012.4  -0.5  749  275           
18 30.08.11 180 (Ю) 10 км    ясно 
+19.7 +10.3 55 +23  1012.9  0.2  749  280    +27.3       
21 30.08.11 тихо ()   10 км    ясно 
+16.5 +10.7 69 +19  1013.1  749  283           
00 31.08.11 140 (ЮВ) 10 км    ясно 
+14.4 +10.2 76 +17  1013.5  0.3  749  285           
03 31.08.11 170 (Ю) >10 км    4/0 верхняя 
[Ci fib]
+14.6 +10 74 +17  1013.9  0.4  750  285           
06 31.08.11 240 (ЮЗ) >10 км    ясно 
+21.1 +11 52 +24  1014.8  1.3  751  279  +14.3         
09 31.08.11 270 (З) >10 км    ясно 
+26.9 +11.1 37 +30  1014.5  751  273           
12 31.08.11 250 (З) >10 км    4/4 600 м 
[Cu med, cong]
+28.4 +12.1 36 +32  1013.5  -0.9  750  272           
15 31.08.11 270 (З) >10 км    4/0 средняя 
[Ac cast]
+26.2 +10.6 38 +28  1013.5  -0.2  750  274           
18 31.08.11 тихо ()   10 км    3/0 средняя 
[Ac cast]
+21.5 +10.4 49 +23  1013.9  0.2  750  278    +29.1       
21 31.08.11 160 (Ю) 10 км    ясно 
+19.9 +9.9 52 +22  1014  750  280           
00 01.09.11 150 (ЮВ) 10 км    ясно 
+17.9 +11.1 64 +22  1013.7  -0.4  750  281           
03 01.09.11 160 (Ю) >10 км    10/10 600 м 
[Sc]
+18.3 +12 67 +24  1013.4  -0.3  750  281           
Время (UTC), дата Ветер
(°,м/с) 
Видим.   Явления Облачность Т
(°С)
Тd
(°С)
f(%) Тe
(°С)
Pmin
(гПа)
dP
(гПа)
Po
(мм)
O2
(г/м3)
Тmin Tmax R s Состояние
почвы